Weather History for Rensselaer, IN

Change the Weather History Date:

Sunday, September 1, 2013

  Actual Average (KVPZ) Record (KVPZ)
Temperature  
Mean Temperature 71 °F 68 °F  
Max Temperature 78 °F 79 °F 95 °F (2011)
Min Temperature 64 °F 58 °F 46 °F (2009)
Degree Days  
Heating Degree Days 0 1  
Month to date heating degree days 1  
Since 1 July heating degree days 18  
Cooling Degree Days 6 4  
Month to date cooling degree days 4  
Year to date cooling degree days 640  
Growing Degree Days 21 (Base 50)    
Moisture  
Dew Point 68 °F    
Average Humidity 90    
Maximum Humidity 100    
Minimum Humidity 74    
Precipitation  
Precipitation 0.00 in 0.15 in 0.84 in (2003)
Month to date precipitation 0.15  
Year to date precipitation 25.69  
Sea Level Pressure  
Sea Level Pressure 29.80 in    
Wind  
Wind Speed 3 mph (SW)    
Max Wind Speed 9 mph    
Max Gust Speed -    
Visibility 5 miles    
Events Fog , Rain    
T = Trace of Precipitation, MM = Missing Value Source: NWS Daily Summary

Daily Weather History Graph

Daily Weather History Graph

Search for Another Location

Airport:

Trip Planner

Search our weather history database for the weather conditions in past years. The results will help you decide how hot, cold, wet, or windy it might be!

Date:

Astronomy

Sep. 01, 2013 Rise Set
Actual Time 6:15 AM CDT 7:20 PM CDT
Civil Twilight 5:47 AM CDT 7:48 PM CDT
Nautical Twilight 5:13 AM CDT 8:22 PM CDT
Astronomical Twilight 4:38 AM CDT 8:57 PM CDT
Moon 2:36 AM CDT (9/1) 4:58 PM CDT (9/1)
Length of Visible Light 14h 01m
Length of Day
13h 05m
Waning Crescent, 13% of the Moon is Illuminated
Sep 1
Waning Crescent
Sep 5
New
Sep 12
First Quarter
Sep 19
Full
Sep 26
Last Quarter

Hourly Weather History & Observations

Time (CDT) Temp. Dew Point Humidity Pressure Visibility Wind Dir Wind Speed Gust Speed Precip Events Conditions
12:15 AM 69.8 °F 68.0 °F 94% 29.81 in 7.0 mi North 5.8 mph - N/A   Clear
12:35 AM 69.8 °F 68.0 °F 94% 29.81 in 7.0 mi East 3.5 mph - N/A   Clear
12:55 AM 68.0 °F 66.2 °F 94% 29.81 in 3.0 mi Calm Calm - N/A   Clear
1:15 AM 68.0 °F 66.2 °F 94% 29.80 in 2.5 mi Calm Calm - N/A   Clear
1:35 AM 66.2 °F 66.2 °F 100% 29.79 in 3.0 mi Calm Calm - N/A   Clear
1:55 AM 64.4 °F 64.4 °F 100% 29.79 in 0.8 mi Calm Calm - N/A   Mist
2:15 AM 64.4 °F 64.4 °F 100% 29.79 in 0.5 mi NNW 3.5 mph - N/A Fog Fog
2:35 AM 66.2 °F 64.4 °F 94% 29.78 in 0.2 mi NNW 4.6 mph - N/A Fog Fog
2:55 AM 66.2 °F 64.4 °F 94% 29.78 in 0.5 mi NNW 3.5 mph - N/A Fog Fog
3:15 AM 66.2 °F 64.4 °F 94% 29.78 in 0.2 mi Calm Calm - N/A Fog Fog
3:35 AM 66.2 °F 64.4 °F 94% 29.79 in 0.2 mi Calm Calm - N/A Fog Fog
3:55 AM 66.2 °F 64.4 °F 94% 29.78 in 0.2 mi Calm Calm - N/A Fog Fog
4:15 AM 66.2 °F 64.4 °F 94% 29.79 in 0.2 mi Calm Calm - N/A Fog Fog
4:35 AM 66.2 °F 64.4 °F 94% 29.80 in 0.8 mi Calm Calm - N/A   Overcast
4:55 AM 66.2 °F 64.4 °F 94% 29.79 in 2.0 mi Calm Calm - N/A   Overcast
5:15 AM 66.2 °F 64.4 °F 94% 29.79 in 1.8 mi Calm Calm - N/A   Overcast
5:35 AM 66.2 °F 64.4 °F 94% 29.79 in 1.2 mi Calm Calm - N/A   Overcast
5:55 AM 66.2 °F 64.4 °F 94% 29.79 in 0.5 mi Calm Calm - N/A Fog Fog
6:15 AM 66.2 °F 64.4 °F 94% 29.78 in 0.5 mi Calm Calm - N/A Fog Fog
6:35 AM 66.2 °F 64.4 °F 94% 29.79 in 1.0 mi Calm Calm - N/A   Overcast
6:55 AM 64.4 °F 64.4 °F 100% 29.79 in 2.0 mi Calm Calm - N/A   Overcast
7:15 AM 66.2 °F 64.4 °F 94% 29.79 in 2.5 mi Calm Calm - N/A   Overcast
7:35 AM 66.2 °F 64.4 °F 94% 29.79 in 2.5 mi Calm Calm - N/A   Overcast
7:55 AM 66.2 °F 66.2 °F 100% 29.79 in 2.5 mi Calm Calm - N/A   Overcast
8:15 AM 66.2 °F 66.2 °F 100% 29.80 in 2.0 mi Calm Calm - N/A   Overcast
8:35 AM 68.0 °F 66.2 °F 94% 29.80 in 2.5 mi Calm Calm - N/A   Overcast
8:55 AM 68.0 °F 66.2 °F 94% 29.80 in 2.5 mi Calm Calm - N/A   Overcast
9:15 AM 68.0 °F 68.0 °F 100% 29.80 in 2.0 mi SSW 3.5 mph - N/A   Overcast
9:35 AM 68.0 °F 68.0 °F 100% 29.81 in 2.5 mi Calm Calm - N/A   Overcast
9:55 AM 68.0 °F 68.0 °F 100% 29.83 in 3.0 mi Calm Calm - N/A   Overcast
10:15 AM 69.8 °F 68.0 °F 94% 29.83 in 3.0 mi West 3.5 mph - N/A   Overcast
10:35 AM 71.6 °F 69.8 °F 94% 29.83 in 4.0 mi Calm Calm - N/A   Overcast
10:55 AM 71.6 °F 69.8 °F 94% 29.82 in 7.0 mi Calm Calm - N/A   Overcast
11:15 AM 71.6 °F 71.6 °F 100% 29.81 in 7.0 mi Calm Calm - N/A   Overcast
11:35 AM 73.4 °F 71.6 °F 94% 29.81 in 7.0 mi Calm Calm - N/A   Overcast
11:55 AM 73.4 °F 71.6 °F 94% 29.82 in 7.0 mi Calm Calm - N/A   Overcast
12:15 PM 75.2 °F 71.6 °F 89% 29.81 in 7.0 mi West 4.6 mph - N/A   Overcast
12:35 PM 75.2 °F 71.6 °F 89% 29.81 in 10.0 mi West 3.5 mph - N/A   Overcast
12:55 PM 75.2 °F 69.8 °F 83% 29.82 in 7.0 mi West 4.6 mph - N/A   Overcast
1:15 PM 75.2 °F 69.8 °F 83% 29.82 in 10.0 mi WNW 5.8 mph - N/A   Overcast
1:35 PM 75.2 °F 69.8 °F 83% 29.82 in 10.0 mi WSW 3.5 mph - N/A   Overcast
1:55 PM 75.2 °F 69.8 °F 83% 29.81 in 10.0 mi WSW 3.5 mph - N/A   Overcast
2:15 PM 77.0 °F 69.8 °F 78% 29.80 in 10.0 mi WSW 3.5 mph - N/A   Overcast
2:35 PM 77.0 °F 69.8 °F 78% 29.80 in 10.0 mi SW 6.9 mph - N/A   Overcast
2:55 PM 77.0 °F 69.8 °F 78% 29.79 in 10.0 mi West 3.5 mph - N/A   Overcast
3:15 PM 77.0 °F 69.8 °F 78% 29.79 in 10.0 mi WSW 4.6 mph - N/A   Overcast
3:35 PM 77.0 °F 69.8 °F 78% 29.79 in 10.0 mi WSW 4.6 mph - N/A   Overcast
3:55 PM 77.0 °F 69.8 °F 78% 29.79 in 10.0 mi SW 6.9 mph - N/A   Overcast
4:15 PM 77.0 °F 69.8 °F 78% 29.79 in 7.0 mi SW 4.6 mph - N/A   Overcast
4:35 PM 78.8 °F 69.8 °F 74% 29.79 in 10.0 mi SW 9.2 mph - N/A   Mostly Cloudy
4:55 PM 78.8 °F 69.8 °F 74% 29.78 in 10.0 mi SW 8.1 mph - N/A   Scattered Clouds
5:15 PM 78.8 °F 69.8 °F 74% 29.78 in 10.0 mi SW 5.8 mph - N/A   Scattered Clouds
5:35 PM 78.8 °F 69.8 °F 74% 29.78 in 10.0 mi SW 5.8 mph - N/A   Clear
5:55 PM 78.8 °F 69.8 °F 74% 29.78 in 7.0 mi SSW 4.6 mph - N/A   Clear
6:15 PM 77.0 °F 69.8 °F 78% 29.78 in 10.0 mi South 4.6 mph - N/A   Clear
6:35 PM 77.0 °F 69.8 °F 78% 29.78 in 7.0 mi South 4.6 mph - N/A   Clear
6:55 PM 75.2 °F 69.8 °F 83% 29.78 in 7.0 mi South 4.6 mph - N/A   Clear
7:15 PM 73.4 °F 69.8 °F 88% 29.79 in 7.0 mi South 3.5 mph - N/A   Clear
7:35 PM 71.6 °F 69.8 °F 94% 29.79 in 5.0 mi Calm Calm - N/A   Clear
7:55 PM 71.6 °F 69.8 °F 94% 29.80 in 5.0 mi Calm Calm - N/A   Clear
8:15 PM 71.6 °F 69.8 °F 94% 29.80 in 7.0 mi South 3.5 mph - N/A   Clear
8:35 PM 69.8 °F 68.0 °F 94% 29.80 in 5.0 mi South 5.8 mph - N/A   Clear
8:55 PM 71.6 °F 68.0 °F 88% 29.81 in 7.0 mi SSW 5.8 mph - N/A   Scattered Clouds
9:15 PM 71.6 °F 69.8 °F 94% 29.81 in 7.0 mi South 4.6 mph - N/A   Scattered Clouds
9:35 PM 69.8 °F 68.0 °F 94% 29.81 in 7.0 mi SSW 3.5 mph - N/A   Clear
9:55 PM 69.8 °F 68.0 °F 94% 29.82 in 7.0 mi Calm Calm - N/A   Clear
10:15 PM 69.8 °F 68.0 °F 94% 29.80 in 5.0 mi SSW 8.1 mph - N/A   Clear
10:35 PM 69.8 °F 69.8 °F 100% 29.79 in 7.0 mi SSW 9.2 mph - N/A   Clear
10:55 PM 71.6 °F 69.8 °F 94% 29.81 in 7.0 mi SSW 5.8 mph - N/A   Clear
11:15 PM 71.6 °F 69.8 °F 94% 29.82 in 7.0 mi SSW 9.2 mph - N/A   Clear
11:35 PM 71.6 °F 69.8 °F 94% 29.78 in 7.0 mi South 6.9 mph - N/A Rain Light Rain
11:55 PM 71.6 °F 69.8 °F 94% 29.76 in 5.0 mi SSW 9.2 mph - N/A   Clear